Fredericksburg, TX

3:50 PM CST on February 24, 2017 (GMT -0600)
Fredericksburg

Weather History for KT82 - April, 2014

Change the Weather History Date:

Saturday, April 26, 2014

  Actual Average (KSAT) Record (KSAT)
Temperature  
Mean Temperature 72 °F -  
Max Temperature 82 °F 81 °F 97 °F (1984)
Min Temperature 63 °F 61 °F 45 °F (1913)
Cooling Degree Days 8    
Growing Degree Days 22 (Base 50)    
Moisture  
Dew Point 62 °F    
Average Humidity 71    
Maximum Humidity 90    
Minimum Humidity 51    
Precipitation  
Precipitation 0.00 in - - ()
Sea Level Pressure  
Sea Level Pressure 29.79 in    
Wind  
Wind Speed 9 mph (South)    
Max Wind Speed 16 mph    
Max Gust Speed 24 mph    
Visibility 9 miles    
Events      
Averages and records for this station are not official NWS values.
T = Trace of Precipitation, MM = Missing Value Source: NWS Daily Summary

Daily Weather History Graph

Daily Weather History Graph

Search for Another Location

Airport or City:

Trip Planner

Search our weather history database for the weather conditions in past years. The results will help you decide how hot, cold, wet, or windy it might be!

Date:

Astronomy

Apr. 26, 2014 Rise Set
Actual Time 6:57 AM CDT 8:10 PM CDT
Civil Twilight 6:31 AM CDT 8:35 PM CDT
Nautical Twilight 6:02 AM CDT 9:05 PM CDT
Astronomical Twilight 5:31 AM CDT 9:36 PM CDT
Moon 5:09 AM CDT (4/26) 5:50 PM CDT (4/26)
Length of Visible Light 14h 03m
Length of Day
13h 13m
Waning Crescent, 8% of the Moon is Illuminated
Apr 26
Waning Crescent
Apr 29
New
May 6
First Quarter
May 14
Full
May 21
Last Quarter

Hourly Weather History & Observations

Time (CDT) Temp. Heat Index Dew Point Humidity Pressure Visibility Wind Dir Wind Speed Gust Speed Precip Events Conditions
12:15 AM 71.1 °F - 62.1 °F 73% 29.92 in 10.0 mi South 8.1 mph - N/A   Clear
12:35 AM 70.2 °F - 62.6 °F 77% 29.91 in 10.0 mi SSE 9.2 mph - N/A   Clear
12:55 AM 69.6 °F - 62.6 °F 78% 29.90 in 10.0 mi South 9.2 mph - N/A   Clear
1:15 AM 69.1 °F - 62.8 °F 80% 29.90 in 10.0 mi South 10.4 mph - N/A   Clear
1:35 AM 68.2 °F - 62.4 °F 82% 29.90 in 10.0 mi South 6.9 mph - N/A   Clear
1:55 AM 68.0 °F - 62.6 °F 83% 29.89 in 10.0 mi South 6.9 mph - N/A   Clear
2:15 AM 67.3 °F - 62.4 °F 84% 29.89 in 10.0 mi South 6.9 mph - N/A   Clear
2:35 AM 67.5 °F - 61.5 °F 81% 29.87 in 10.0 mi South 8.1 mph - N/A   Clear
2:55 AM 66.7 °F - 60.3 °F 80% 29.87 in 10.0 mi South 8.1 mph - N/A   Clear
3:15 AM 66.9 °F - 60.1 °F 79% 29.86 in 10.0 mi South 9.2 mph - N/A   Clear
3:35 AM 65.8 °F - 59.9 °F 81% 29.86 in 10.0 mi South 5.8 mph - N/A   Clear
3:55 AM 65.7 °F - 60.3 °F 83% 29.85 in 10.0 mi SSE 6.9 mph - N/A   Clear
4:15 AM 64.6 °F - 60.8 °F 88% 29.84 in 10.0 mi SE 4.6 mph - N/A   Clear
4:35 AM 64.6 °F - 61.2 °F 89% 29.84 in 10.0 mi South 6.9 mph - N/A   Clear
4:55 AM 63.7 °F - 60.6 °F 90% 29.84 in 10.0 mi South 5.8 mph - N/A   Clear
5:15 AM 63.3 °F - 60.3 °F 90% 29.84 in 10.0 mi South 6.9 mph - N/A   Clear
5:35 AM 63.5 °F - 60.6 °F 90% 29.85 in 10.0 mi SSW 9.2 mph - N/A   Scattered Clouds
5:55 AM 64.0 °F - 60.8 °F 89% 29.84 in 10.0 mi SSW 8.1 mph - N/A   Mostly Cloudy
6:15 AM 64.0 °F - 60.3 °F 87% 29.85 in 10.0 mi SSW 11.5 mph 18.4 mph N/A   Overcast
6:35 AM 64.4 °F - 60.4 °F 87% 29.85 in 10.0 mi South 6.9 mph - N/A   Overcast
6:55 AM 64.6 °F - 60.8 °F 88% 29.84 in 10.0 mi South 8.1 mph - N/A   Overcast
7:15 AM 64.6 °F - 60.8 °F 88% 29.84 in 7.0 mi South 9.2 mph - N/A   Overcast
7:35 AM 64.9 °F - 61.0 °F 87% 29.84 in 7.0 mi SSW 8.1 mph - N/A   Overcast
7:55 AM 65.5 °F - 61.3 °F 86% 29.84 in 7.0 mi South 10.4 mph - N/A   Overcast
8:15 AM 66.2 °F - 61.7 °F 85% 29.85 in 7.0 mi South 11.5 mph - N/A   Overcast
8:35 AM 66.6 °F - 61.7 °F 84% 29.85 in 7.0 mi SSW 12.7 mph - N/A   Overcast
8:55 AM 66.6 °F - 62.1 °F 85% 29.85 in 7.0 mi South 12.7 mph - N/A   Overcast
9:15 AM 66.9 °F - 62.2 °F 85% 29.85 in 5.0 mi South 12.7 mph - N/A   Haze
9:35 AM 67.1 °F - 62.2 °F 84% 29.85 in 5.0 mi South 11.5 mph - N/A   Haze
9:55 AM 67.8 °F - 62.4 °F 83% 29.85 in 5.0 mi South 9.2 mph - N/A   Haze
10:15 AM 68.2 °F - 62.6 °F 82% 29.85 in 5.0 mi South 10.4 mph - N/A   Haze
10:35 AM 69.6 °F - 62.6 °F 78% 29.87 in 7.0 mi South 10.4 mph 16.1 mph N/A   Overcast
10:55 AM 71.6 °F - 62.6 °F 73% 29.86 in 7.0 mi South 12.7 mph - N/A   Overcast
11:15 AM 72.1 °F - 61.7 °F 70% 29.85 in 7.0 mi South 12.7 mph 19.6 mph N/A   Mostly Cloudy
11:35 AM 73.4 °F - 62.2 °F 68% 29.85 in 10.0 mi SSW 9.2 mph - N/A   Mostly Cloudy
11:55 AM 74.8 °F - 62.1 °F 64% 29.84 in 10.0 mi South 9.2 mph 19.6 mph N/A   Mostly Cloudy
12:15 PM 75.6 °F - 62.1 °F 63% 29.84 in 10.0 mi South 15.0 mph 20.7 mph N/A   Mostly Cloudy
12:35 PM 77.4 °F - 62.6 °F 60% 29.83 in 10.0 mi South 12.7 mph 16.1 mph N/A   Scattered Clouds
12:55 PM 77.9 °F - 62.4 °F 59% 29.81 in 10.0 mi SSW 9.2 mph 16.1 mph N/A   Scattered Clouds
1:15 PM 78.8 °F - 62.2 °F 57% 29.80 in 10.0 mi South 10.4 mph 16.1 mph N/A   Scattered Clouds
1:35 PM 80.2 °F 81.3 °F 61.9 °F 53% 29.79 in 10.0 mi South 12.7 mph 21.9 mph N/A   Scattered Clouds
1:55 PM 81.1 °F 82.1 °F 61.9 °F 52% 29.78 in 10.0 mi South 15.0 mph - N/A   Scattered Clouds
2:15 PM 81.9 °F 82.8 °F 62.2 °F 51% 29.77 in 10.0 mi SE 8.1 mph 17.3 mph N/A   Clear
2:35 PM 82.0 °F 83.1 °F 62.6 °F 52% 29.75 in 10.0 mi South 15.0 mph 20.7 mph N/A   Clear
2:55 PM 81.3 °F 82.3 °F 62.2 °F 52% 29.75 in 10.0 mi South 13.8 mph 20.7 mph N/A   Clear
3:15 PM 82.0 °F 83.0 °F 62.2 °F 51% 29.74 in 10.0 mi South 15.0 mph 21.9 mph N/A   Clear
3:35 PM 81.3 °F 82.3 °F 62.4 °F 52% 29.73 in 10.0 mi South 12.7 mph 20.7 mph N/A   Scattered Clouds
3:55 PM 82.0 °F 83.0 °F 62.2 °F 51% 29.73 in 10.0 mi SSE 15.0 mph 18.4 mph N/A   Scattered Clouds
4:15 PM 80.6 °F 81.7 °F 62.2 °F 53% 29.72 in 10.0 mi SSE 16.1 mph 20.7 mph N/A   Mostly Cloudy
4:35 PM 80.1 °F 81.2 °F 62.2 °F 54% 29.71 in 10.0 mi SSE 13.8 mph 18.4 mph N/A   Mostly Cloudy
4:55 PM 79.7 °F - 61.9 °F 54% 29.72 in 10.0 mi South 16.1 mph 24.2 mph N/A   Overcast
5:15 PM 79.0 °F - 62.1 °F 56% 29.72 in 10.0 mi SSE 12.7 mph 20.7 mph N/A   Overcast
5:35 PM 79.2 °F - 62.2 °F 56% 29.72 in 10.0 mi SSE 13.8 mph 19.6 mph N/A   Mostly Cloudy
5:55 PM 79.0 °F - 62.6 °F 57% 29.71 in 10.0 mi SSE 10.4 mph 16.1 mph N/A   Mostly Cloudy
6:15 PM 80.1 °F 81.4 °F 62.4 °F 55% 29.70 in 10.0 mi SSE 12.7 mph 18.4 mph N/A   Scattered Clouds
6:35 PM 80.2 °F 81.5 °F 62.6 °F 55% 29.70 in 10.0 mi SSE 11.5 mph - N/A   Mostly Cloudy
6:55 PM 79.7 °F - 62.8 °F 56% 29.70 in 10.0 mi SSE 11.5 mph 17.3 mph N/A   Scattered Clouds
7:15 PM 80.1 °F 81.5 °F 63.1 °F 56% 29.69 in 10.0 mi South 12.7 mph 17.3 mph N/A   Scattered Clouds
7:35 PM 79.0 °F - 63.1 °F 58% 29.68 in 10.0 mi SSE 8.1 mph - N/A   Clear
7:55 PM 78.8 °F - 63.0 °F 58% 29.67 in 10.0 mi SSE 5.8 mph - N/A   Clear
8:15 PM 77.9 °F - 63.1 °F 60% 29.67 in 10.0 mi SE 3.5 mph - N/A   Clear
8:35 PM 77.2 °F - 63.5 °F 63% 29.67 in 10.0 mi ESE 3.5 mph - N/A   Clear
8:55 PM 76.5 °F - 63.5 °F 64% 29.67 in 10.0 mi SE 3.5 mph - N/A   Clear
9:15 PM 77.0 °F - 63.7 °F 63% 29.67 in 10.0 mi SE 6.9 mph - N/A   Clear
9:35 PM 76.6 °F - 64.6 °F 66% 29.67 in 10.0 mi SE 9.2 mph 17.3 mph N/A   Clear
9:55 PM 75.9 °F - 65.7 °F 70% 29.68 in 10.0 mi SSE 9.2 mph - N/A   Clear
10:15 PM 75.2 °F - 66.2 °F 73% 29.68 in 10.0 mi SE 8.1 mph - N/A   Clear
10:35 PM 74.7 °F - 66.9 °F 77% 29.68 in 10.0 mi SSE 9.2 mph 16.1 mph N/A   Scattered Clouds
10:55 PM 74.3 °F - 67.1 °F 78% 29.68 in 7.0 mi SSE 11.5 mph - N/A   Overcast
11:15 PM 73.9 °F - 67.6 °F 81% 29.68 in 7.0 mi SSE 8.1 mph 16.1 mph N/A   Overcast
11:35 PM 73.6 °F - 68.0 °F 83% 29.68 in 7.0 mi SSE 9.2 mph - N/A   Overcast
11:55 PM 73.4 °F - 67.8 °F 83% 29.68 in 7.0 mi SSE 8.1 mph - N/A   Overcast